Mt. Pocono, PA

7:56 AM EST on December 15, 2019 (GMT -0500)
Pocono Mountains Municipal

Weather History for KMPO - October, 2019

Change the Weather History Date:

Sunday, October 27, 2019

  Actual Average Record
Temperature  
Mean Temperature 54 °F 45 °F  
Max Temperature 64 °F 54 °F 77 °F (1963)
Min Temperature 44 °F 36 °F 16 °F (1928)
Degree Days  
Heating Degree Days 10 20  
Month to date heating degree days 387 439  
Since 1 July heating degree days 565 707  
Cooling Degree Days 0 0  
Month to date cooling degree days 5 0  
Year to date cooling degree days 348 313  
Growing Degree Days 4 (Base 50)    
Moisture  
Dew Point 51 °F    
Average Humidity 94    
Maximum Humidity 100    
Minimum Humidity 65    
Precipitation  
Precipitation 1.30 in 0.09 in 2.28 in (2003)
Month to date precipitation 5.85 3.63  
Year to date precipitation 42.07 39.97  
Sea Level Pressure  
Sea Level Pressure 29.91 in    
Wind  
Wind Speed 10 mph ()    
Max Wind Speed 24 mph    
Max Gust Speed 33 mph    
Visibility 6.0 miles    
Events Fog , Rain    
T = Trace of Precipitation, MM = Missing Value Source: Averaged Metar Reports

Daily Weather History Graph

Daily Weather History Graph

Search for Another Location

Airport or City:

Astronomy

Oct. 27, 2019 Rise Set
Actual Time 7:26 AM EDT 6:03 PM EDT
Civil Twilight 6:58 AM EDT 6:32 PM EDT
Nautical Twilight 6:25 AM EDT 7:04 PM EDT
Astronomical Twilight 5:53 AM EDT 7:36 PM EDT
Moon 6:31 AM EDT (10/27) 6:12 PM EDT (10/27)
Length of Visible Light 11h 33m
Length of Day
10h 37m
Waning Crescent, 0% of the Moon is Illuminated
Oct 27
Waning Crescent
Oct 27
New
Nov 4
First Quarter
Nov 12
Full
Nov 19
Last Quarter

Hourly Weather History & Observations

Time (EDT) Temp. Windchill Dew Point Humidity Pressure Visibility Wind Dir Wind Speed Gust Speed Precip Events Conditions
12:53 AM 45.0 °F 39.7 °F 45.0 °F 100% 30.17 in 10.0 mi ESE 10.4 mph - 0.00 in Rain Light Rain
1:19 AM 45.0 °F 40.1 °F 45.0 °F 100% 30.15 in 10.0 mi ESE 9.2 mph - 0.00 in   Mostly Cloudy
1:27 AM 45.0 °F 40.6 °F 45.0 °F 100% 30.14 in 9.0 mi ESE 8.1 mph - 0.00 in   Overcast
1:50 AM 44.6 °F 39.7 °F 44.6 °F 100% 30.13 in 9.0 mi East 9.2 mph - 0.00 in   Overcast
1:53 AM 45.0 °F 40.1 °F 45.0 °F 100% 30.15 in 9.0 mi East 9.2 mph - 0.00 in Rain Light Rain
2:36 AM 45.0 °F 39.7 °F 45.0 °F 100% 30.12 in 10.0 mi East 10.4 mph - 0.00 in   Overcast
2:53 AM 45.0 °F 40.6 °F 45.0 °F 100% 30.14 in 10.0 mi East 8.1 mph - 0.00 in   Overcast
3:53 AM 45.0 °F 40.1 °F 45.0 °F 100% 30.09 in 10.0 mi ESE 9.2 mph - 0.00 in Rain Light Rain
4:29 AM 46.0 °F 41.0 °F 45.0 °F 96% 30.06 in 10.0 mi ESE 10.4 mph - 0.00 in   Overcast
4:41 AM 46.0 °F 41.0 °F 46.0 °F 100% 30.04 in 10.0 mi East 10.4 mph - 0.00 in Rain Light Rain
4:53 AM 46.0 °F 41.4 °F 46.0 °F 100% 30.04 in 10.0 mi East 9.2 mph 18.4 mph 0.00 in   Overcast
5:53 AM 46.9 °F - 46.9 °F 100% 30.02 in 2.5 mi ESE 10.4 mph - 0.01 in Rain Light Rain
6:01 AM 46.9 °F - 46.9 °F 100% 30.01 in 1.2 mi ESE 12.7 mph - 0.01 in Rain Light Rain
6:13 AM 48.0 °F - 48.0 °F 100% 30.00 in 0.5 mi ESE 12.7 mph - 0.01 in Fog , Rain Light Rain
6:25 AM 48.0 °F - 48.0 °F 100% 29.99 in 0.2 mi ESE 16.1 mph 20.7 mph 0.02 in Fog , Rain Light Rain
6:53 AM 48.9 °F - 48.9 °F 100% 29.98 in 0.2 mi ESE 17.3 mph 21.9 mph 0.03 in Fog , Rain Light Rain
7:04 AM 48.9 °F - 48.9 °F 100% 29.96 in 0.8 mi ESE 13.8 mph 23.0 mph 0.02 in Rain Rain
7:11 AM 48.9 °F - 48.9 °F 100% 29.96 in 2.0 mi ESE 12.7 mph 23.0 mph 0.04 in Rain Rain
7:20 AM 50.0 °F - 50.0 °F 100% 29.95 in 3.0 mi ESE 15.0 mph 23.0 mph 0.05 in Rain Light Rain
7:30 AM 50.0 °F - 50.0 °F 100% 29.95 in 1.8 mi ESE 15.0 mph 24.2 mph 0.07 in Rain Rain
7:53 AM 50.0 °F - 50.0 °F 100% 29.95 in 1.5 mi ESE 17.3 mph 24.2 mph 0.14 in Rain Rain
8:28 AM 51.1 °F - 51.1 °F 100% 29.92 in 0.2 mi East 13.8 mph 23.0 mph 0.07 in Fog , Rain Light Rain
8:48 AM 51.8 °F - 51.8 °F 100% 29.91 in 1.0 mi ESE 13.8 mph 24.2 mph 0.12 in Rain Rain
8:53 AM 51.1 °F - 51.1 °F 100% 29.92 in 1.5 mi ESE 15.0 mph 23.0 mph 0.15 in Rain Rain
9:53 AM 52.0 °F - 52.0 °F 100% 29.88 in 1.0 mi ESE 12.7 mph 20.7 mph 0.27 in Rain Heavy Rain
10:33 AM 53.1 °F - 53.1 °F 100% 29.82 in 0.8 mi ESE 13.8 mph - 0.29 in Rain Heavy Rain
10:46 AM 53.1 °F - 53.1 °F 100% 29.80 in 1.2 mi East 15.0 mph 23.0 mph 0.37 in Rain Heavy Rain
10:53 AM 53.1 °F - 53.1 °F 100% 29.82 in 2.0 mi ESE 12.7 mph 20.7 mph 0.40 in Rain Rain
11:01 AM 53.1 °F - 53.1 °F 100% 29.81 in 1.2 mi ESE 13.8 mph 21.9 mph 0.08 in Rain Heavy Rain
11:25 AM 54.0 °F - 54.0 °F 100% 29.85 in 0.8 mi Calm Calm - 0.28 in Rain Heavy Rain
11:27 AM 54.0 °F - 54.0 °F 100% 29.86 in 1.0 mi NW 4.6 mph - 0.28 in Rain Heavy Rain
11:34 AM 54.0 °F - 54.0 °F 100% 29.85 in 3.0 mi NE 3.5 mph - 0.29 in Rain Light Rain
11:53 AM 54.0 °F - 54.0 °F 100% 29.84 in 5.0 mi ENE 4.6 mph - 0.30 in Rain Light Rain
12:19 PM 55.0 °F - 55.0 °F 100% 29.80 in 10.0 mi East 5.8 mph - 0.00 in   Overcast
12:37 PM 55.0 °F - 55.0 °F 100% 29.79 in 10.0 mi East 6.9 mph - 0.00 in   Overcast
12:53 PM 55.9 °F - 55.9 °F 100% 29.79 in 5.0 mi East 5.8 mph - 0.00 in Rain Light Rain
1:11 PM 55.9 °F - 55.9 °F 100% 29.78 in 2.5 mi East 5.8 mph - 0.00 in Rain Light Rain
1:16 PM 55.9 °F - 55.9 °F 100% 29.77 in 3.0 mi Variable 3.5 mph - 0.00 in Rain Light Rain
1:23 PM 55.9 °F - 55.9 °F 100% 29.76 in 5.0 mi East 6.9 mph - 0.00 in Rain Light Rain
1:53 PM 57.0 °F - 57.0 °F 100% 29.76 in 7.0 mi SE 3.5 mph - 0.00 in   Overcast
2:35 PM 61.0 °F - 60.1 °F 97% 29.74 in 10.0 mi SSW 3.5 mph - N/A   Overcast
2:53 PM 62.1 °F - 60.1 °F 93% 29.74 in 10.0 mi West 8.1 mph - N/A   Overcast
3:13 PM 63.0 °F - 55.9 °F 78% 29.74 in 10.0 mi WSW 15.0 mph 25.3 mph N/A   Mostly Cloudy
3:53 PM 64.9 °F - 53.1 °F 65% 29.75 in 10.0 mi WSW 17.3 mph 29.9 mph N/A   Overcast
4:53 PM 63.0 °F - 54.0 °F 72% 29.77 in 10.0 mi West 17.3 mph 27.6 mph N/A   Overcast
5:22 PM 61.0 °F - 54.0 °F 78% 29.79 in 10.0 mi West 21.9 mph 28.8 mph N/A   Overcast
5:32 PM 61.0 °F - 54.0 °F 78% 29.79 in 10.0 mi West 19.6 mph 28.8 mph N/A   Overcast
5:53 PM 60.1 °F - 52.0 °F 75% 29.81 in 10.0 mi West 16.1 mph 24.2 mph N/A   Scattered Clouds
6:53 PM 57.0 °F - 51.1 °F 81% 29.84 in 10.0 mi West 17.3 mph - N/A   Clear
7:53 PM 55.0 °F - 48.9 °F 80% 29.87 in 10.0 mi West 19.6 mph 25.3 mph N/A   Scattered Clouds
8:53 PM 54.0 °F - 48.9 °F 83% 29.90 in 10.0 mi West 15.0 mph 23.0 mph N/A   Mostly Cloudy
9:53 PM 53.1 °F - 46.9 °F 80% 29.93 in 10.0 mi West 18.4 mph 29.9 mph N/A   Overcast
10:53 PM 52.0 °F - 45.0 °F 77% 29.95 in 10.0 mi WNW 15.0 mph 20.7 mph N/A   Scattered Clouds
11:19 PM 52.0 °F - 45.0 °F 77% 29.94 in 10.0 mi WNW 15.0 mph - N/A   Mostly Cloudy
11:53 PM 52.0 °F - 46.0 °F 80% 29.95 in 10.0 mi WNW 12.7 mph 23.0 mph N/A   Overcast